,,Stat6,,Stat2,,Stat8,,Stat9,,Stat10,,Wind1,,Wind1,
time,status,PA1M_AVG,status,PR1M_SUM,status,RH1M_AVG,status,SR1M_AVG,status,TA1M_AVG,status,W1dAve1m,status,W1sAve1m,
2007-01-03, 07:00:01,VALID,919.428,VALID,0,VALID,100,VALID,-0.0169808,VALID,19.0545,VALID,283,VALID,0.252056,
2007-01-03, 07:01:00,VALID,919.422,VALID,0.2,VALID,100,VALID,0,VALID,19.0545,VALID,291,VALID,0.377046,
2007-01-03, 07:02:00,VALID,919.387,VALID,0,VALID,100,VALID,-0.101885,VALID,19.0582,VALID,276,VALID,0.932413,
2007-01-03, 07:03:00,VALID,919.374,VALID,0,VALID,100,VALID,-0.0509425,VALID,19.0451,VALID,274,VALID,0.491016,
2007-01-03, 07:04:00,VALID,919.39,VALID,0,VALID,100,VALID,-0.0509425,VALID,19.0451,VALID,271,VALID,1.07207,
2007-01-03, 07:05:00,VALID,919.375,VALID,0,VALID,100,VALID,-0.0509425,VALID,19.0585,VALID,288,VALID,1.21532,
2007-01-03, 07:06:00,VALID,919.358,VALID,0.2,VALID,100,VALID,-0.0509425,VALID,19.0739,VALID,284,VALID,1.23438,
2007-01-03, 07:07:00,VALID,919.348,VALID,0,VALID,100,VALID,0,VALID,19.0615,VALID,268,VALID,1.99419,
2007-01-03, 07:08:00,VALID,919.371,VALID,0,VALID,100,VALID,-0.0339617,VALID,19.0287,VALID,268,VALID,1.3092,
2007-01-03, 07:09:00,VALID,919.391,VALID,0,VALID,100,VALID,-0.0339617,VALID,19.0255,VALID,279,VALID,1.27102,
2007-01-03, 07:10:00,VALID,919.401,VALID,0.2,VALID,100,VALID,-0.0339617,VALID,19.0163,VALID,201,VALID,0.805246,
2007-01-03, 07:11:00,VALID,919.401,VALID,0,VALID,100,VALID,-0.0339617,VALID,19.016,VALID,289,VALID,0.798018,
2007-01-03, 07:12:00,VALID,919.403,VALID,0,VALID,100,VALID,-0.0509425,VALID,19.0133,VALID,343,VALID,0.490371,
2007-01-03, 07:13:00,VALID,919.411,VALID,0,VALID,100,VALID,-0.0509425,VALID,18.9937,VALID,92,VALID,0.89117,
2007-01-03, 07:14:00,VALID,919.429,VALID,0.2,VALID,100,VALID,-0.0339617,VALID,18.9775,VALID,128,VALID,0.137091,
2007-01-03, 07:15:00,VALID,919.392,VALID,0.2,VALID,100,VALID,-0.0339617,VALID,18.9607,VALID,132,VALID,0.411644,
2007-01-03, 07:16:00,VALID,919.337,VALID,0,VALID,100,VALID,-0.0339617,VALID,18.945,VALID,98,VALID,1.34803,
2007-01-03, 07:17:00,VALID,919.334,VALID,0.2,VALID,100,VALID,-0.0339617,VALID,18.9358,VALID,192,VALID,1.10175,
2007-01-03, 07:18:00,VALID,919.347,VALID,0,VALID,100,VALID,-0.0509425,VALID,18.942,VALID,135,VALID,0.538491,
2007-01-03, 07:19:00,VALID,919.326,VALID,0,VALID,100,VALID,-0.0679233,VALID,18.942,VALID,52,VALID,0.195313,
2007-01-03, 07:20:00,VALID,919.289,VALID,0,VALID,100,VALID,-0.0679233,VALID,18.9455,VALID,330,VALID,0.582961,
2007-01-03, 07:21:00,VALID,919.31,VALID,0,VALID,100,VALID,-0.0679233,VALID,18.9323,VALID,238,VALID,0.608648,
2007-01-03, 07:22:00,VALID,919.284,VALID,0.2,VALID,100,VALID,-0.0679233,VALID,18.9321,VALID,107,VALID,0.599888,
2007-01-03, 07:23:00,VALID,919.277,VALID,0,VALID,100,VALID,-0.0679233,VALID,18.9356,VALID,183,VALID,0.523256,
2007-01-03, 07:24:00,VALID,919.254,VALID,0,VALID,100,VALID,-0.0339617,VALID,18.939,VALID,272,VALID,1.95126,
2007-01-03, 07:25:00,VALID,919.261,VALID,0,VALID,100,VALID,-0.0509425,VALID,18.9194,VALID,276,VALID,0.686047,
2007-01-03, 07:26:00,VALID,919.269,VALID,0.2,VALID,100,VALID,-0.0849042,VALID,18.9162,VALID,241,VALID,0.246271,
2007-01-03, 07:27:00,VALID,919.251,VALID,0,VALID,100,VALID,-0.0679233,VALID,18.9001,VALID,194,VALID,0.246185,
2007-01-03, 07:28:00,VALID,919.248,VALID,0,VALID,100,VALID,-0.0509425,VALID,18.8968,VALID,140,VALID,0.15816,
2007-01-03, 07:29:00,VALID,919.235,VALID,0,VALID,100,VALID,-0.0509425,VALID,18.9068,VALID,163,VALID,0.121804,
2007-01-03, 07:30:00,VALID,919.23,VALID,0,VALID,100,VALID,-0.0339617,VALID,18.8998,VALID,267,VALID,0.323765,
2007-01-03, 07:31:00,VALID,919.235,VALID,0,VALID,100,VALID,-0.0679233,VALID,18.9261,VALID,267,VALID,0.0159884,
2007-01-03, 07:32:00,VALID,919.231,VALID,0,VALID,100,VALID,-0.0509425,VALID,18.913,VALID,267,VALID,0.0224848,
2007-01-03, 07:33:00,VALID,919.228,VALID,0,VALID,100,VALID,-0.0679233,VALID,18.8934,VALID,225,VALID,0.65439,
2007-01-03, 07:34:00,VALID,919.23,VALID,0,VALID,100,VALID,-0.0339617,VALID,18.8648,VALID,268,VALID,0.844271,
2007-01-03, 07:35:00,VALID,919.227,VALID,0.2,VALID,100,VALID,-0.0339617,VALID,18.8745,VALID,274,VALID,0.704527,
2007-01-03, 07:36:00,VALID,919.233,VALID,0,VALID,100,VALID,-0.0509425,VALID,18.8839,VALID,272,VALID,0.905401,
2007-01-03, 16:46:00,VALID,919.209,VALID,0,VALID,100,VALID,261.318,VALID,20.5552,VALID,282,VALID,1.48172,
2007-01-03, 16:47:00,VALID,919.21,VALID,0,VALID,100,VALID,264.426,VALID,20.6026,VALID,277,VALID,1.55432,
2007-01-03, 16:48:00,VALID,919.216,VALID,0,VALID,100,VALID,261.844,VALID,20.6677,VALID,274,VALID,1.37059,
2007-01-03, 16:49:00,VALID,919.219,VALID,0,VALID,100,VALID,267.652,VALID,20.7355,VALID,279,VALID,1.71003,
2007-01-03, 16:50:00,VALID,919.196,VALID,0,VALID,100,VALID,274.75,VALID,20.7864,VALID,275,VALID,1.88517,
2007-01-03, 16:51:00,VALID,919.221,VALID,0,VALID,99.6615,VALID,274.223,VALID,20.7224,VALID,262,VALID,1.28373,
2007-01-03, 16:52:00,VALID,919.22,VALID,0,VALID,99.676,VALID,278.944,VALID,20.6826,VALID,275,VALID,1.25781,
2007-01-03, 16:53:00,VALID,919.213,VALID,0,VALID,99.9662,VALID,276.006,VALID,20.7377,VALID,278,VALID,1.94967,
2007-01-03, 16:54:00,VALID,919.195,VALID,0,VALID,98.8126,VALID,270.199,VALID,20.6769,VALID,262,VALID,2.04358,
2007-01-03, 16:55:00,VALID,919.205,VALID,0,VALID,98.7528,VALID,279.997,VALID,20.5865,VALID,267,VALID,1.90454,
2007-01-03, 16:56:00,VALID,919.217,VALID,0,VALID,99.4878,VALID,270.369,VALID,20.6314,VALID,274,VALID,1.86265,
2007-01-03, 16:57:00,VALID,919.244,VALID,0,VALID,99.7548,VALID,275.072,VALID,20.6995,VALID,271,VALID,0.916109,
2007-01-03, 16:58:00,VALID,919.238,VALID,0,VALID,99.941,VALID,289.778,VALID,20.7576,VALID,278,VALID,1.66484,
2007-01-03, 16:59:00,VALID,919.227,VALID,0,VALID,98.8075,VALID,275.361,VALID,20.706,VALID,270,VALID,2.02778,
2007-01-03, 17:00:00,VALID,919.249,VALID,0,VALID,98.6524,VALID,305.4,VALID,20.6414,VALID,262,VALID,0.931556,
2007-01-03, 17:01:00,VALID,919.267,VALID,0,VALID,98.927,VALID,304.483,VALID,20.6339,VALID,270,VALID,0.902716,
2007-01-03, 17:02:00,VALID,919.271,VALID,0,VALID,99.7917,VALID,329.971,VALID,20.7544,VALID,267,VALID,0.700781,
2007-01-03, 17:03:00,VALID,919.271,VALID,0,VALID,99.9379,VALID,334.692,VALID,20.8282,VALID,241,VALID,0.47603,
2007-01-03, 17:04:00,VALID,919.269,VALID,0,VALID,99.9636,VALID,325.76,VALID,20.896,VALID,258,VALID,0.186357,
2007-01-03, 17:05:00,VALID,919.282,VALID,0,VALID,99.9702,VALID,339.175,VALID,21.0028,VALID,272,VALID,0.254972,
2007-01-03, 17:06:00,VALID,919.27,VALID,0,VALID,99.5145,VALID,328.664,VALID,21.0545,VALID,277,VALID,0.264482,
2007-01-03, 17:07:00,VALID,919.263,VALID,0,VALID,99.0326,VALID,332.637,VALID,21.0733,VALID,9,VALID,0.345526,
2007-01-03, 17:08:00,VALID,919.267,VALID,0,VALID,98.6358,VALID,296.01,VALID,21.0733,VALID,85,VALID,0.145089,
2007-01-03, 17:09:00,VALID,919.272,VALID,0,VALID,98.6689,VALID,273.969,VALID,21.1183,VALID,159,VALID,0.401456,
2007-01-03, 17:10:00,VALID,919.269,VALID,0,VALID,97.7304,VALID,266.786,VALID,21.0607,VALID,214,VALID,0.914063,
2007-01-03, 17:11:00,VALID,919.262,VALID,0,VALID,98.1043,VALID,249.194,VALID,21.0639,VALID,279,VALID,1.30134,
2007-01-03, 17:12:00,VALID,919.266,VALID,0,VALID,98.0572,VALID,236.475,VALID,21.0284,VALID,274,VALID,1.12805,
2007-01-03, 17:13:00,VALID,919.267,VALID,0,VALID,98.6409,VALID,233.945,VALID,21.0308,VALID,248,VALID,0.361852,
2007-01-03, 17:14:00,VALID,919.257,VALID,0,VALID,98.6752,VALID,230.583,VALID,21.0368,VALID,244,VALID,0.179878,
2007-01-03, 17:15:00,VALID,919.251,VALID,0,VALID,98.1272,VALID,247.139,VALID,21.008,VALID,242,VALID,0.398438,
2007-01-03, 17:16:00,VALID,919.25,VALID,0.2,VALID,97.6478,VALID,250.077,VALID,20.9011,VALID,287,VALID,0.885231,
2007-01-03, 17:17:00,VALID,919.251,VALID,0,VALID,98.2454,VALID,256.818,VALID,20.9108,VALID,297,VALID,0.444425,
2007-01-03, 17:18:00,VALID,919.242,VALID,0,VALID,98.2963,VALID,252.539,VALID,20.9148,VALID,14,VALID,0.537946,
2007-01-03, 17:19:00,VALID,919.237,VALID,0,VALID,98.1831,VALID,242.537,VALID,20.8947,VALID,251,VALID,0.894176,
2007-01-03, 17:20:00,VALID,919.247,VALID,0,VALID,97.9288,VALID,243.913,VALID,20.8371,VALID,208,VALID,0.403832,
2007-01-03, 17:21:00,VALID,919.25,VALID,0,VALID,97.6325,VALID,258.448,VALID,20.7367,VALID,125,VALID,0.419819,
2007-01-03, 17:22:00,VALID,919.249,VALID,0,VALID,97.9364,VALID,248.718,VALID,20.6885,VALID,171,VALID,0.352834,
2007-01-03, 17:23:00,VALID,919.254,VALID,0.2,VALID,98.6002,VALID,262.082,VALID,20.7211,VALID,147,VALID,0.295058,
2007-01-03, 17:24:00,VALID,919.27,VALID,0,VALID,98.5608,VALID,274.563,VALID,20.7106,VALID,171,VALID,0.561942,
2007-01-03, 17:25:00,VALID,919.259,VALID,0,VALID,98.7045,VALID,236.203,VALID,20.6915,VALID,167,VALID,0.231957,
2007-01-03, 17:26:00,VALID,919.268,VALID,0,VALID,97.9848,VALID,192.851,VALID,20.6495,VALID,236,VALID,0.70141,
2007-01-03, 17:27:00,VALID,919.256,VALID,0,VALID,96.8556,VALID,180.574,VALID,20.4657,VALID,232,VALID,0.671512,
2007-01-03, 17:28:00,VALID,919.248,VALID,0,VALID,97.7597,VALID,216.404,VALID,20.4359,VALID,286,VALID,0.40282,
2007-01-03, 17:29:00,VALID,919.252,VALID,0,VALID,99.0148,VALID,214.349,VALID,20.5583,VALID,264,VALID,0.177641,
2007-01-03, 17:30:00,VALID,919.237,VALID,0,VALID,99.3441,VALID,192.936,VALID,20.6718,VALID,257,VALID,1.22656,
2007-01-03, 17:31:00,VALID,919.239,VALID,0,VALID,97.7482,VALID,182.035,VALID,20.5559,VALID,248,VALID,0.834985,
2007-01-03, 17:32:00,VALID,919.224,VALID,0,VALID,98.5888,VALID,182.068,VALID,20.5168,VALID,267,VALID,0.601563,
2007-01-03, 17:33:00,VALID,919.232,VALID,0,VALID,98.8749,VALID,206.385,VALID,20.5593,VALID,257,VALID,0.663368,
2007-01-03, 17:34:00,VALID,919.217,VALID,0,VALID,99.3327,VALID,268.399,VALID,20.614,VALID,274,VALID,1.27363,
2007-01-03, 17:35:00,VALID,919.217,VALID,0,VALID,99.0961,VALID,288.335,VALID,20.5854,VALID,280,VALID,1.02274,
2007-01-03, 17:36:00,VALID,919.213,VALID,0,VALID,99.7559,VALID,301.614,VALID,20.656,VALID,286,VALID,0.895531,
2007-01-03, 17:37:00,VALID,919.188,VALID,0,VALID,100,VALID,286.789,VALID,20.7496,VALID,264,VALID,0.333147,
2007-01-03, 17:38:00,VALID,919.181,VALID,0,VALID,99.9062,VALID,250.518,VALID,20.7719,VALID,261,VALID,0.334077,
2007-01-03, 17:39:00,VALID,919.174,VALID,0,VALID,99.4166,VALID,216.2,VALID,20.7749,VALID,253,VALID,0.792783,
2007-01-03, 17:40:00,VALID,919.173,VALID,0,VALID,99.6849,VALID,241.994,VALID,20.8239,VALID,165,VALID,0.103237,
2007-01-03, 17:41:00,VALID,919.165,VALID,0,VALID,99.5437,VALID,259.399,VALID,20.8529,VALID,234,VALID,0.573828,
2007-01-03, 17:42:00,VALID,919.135,VALID,0,VALID,99.5196,VALID,285.38,VALID,20.8947,VALID,271,VALID,0.550249,
2007-01-03, 17:43:00,VALID,919.13,VALID,0,VALID,99.2284,VALID,287.01,VALID,20.9143,VALID,298,VALID,0.667969,
2007-01-03, 17:44:00,VALID,919.12,VALID,0,VALID,99.4306,VALID,304.415,VALID,20.9824,VALID,291,VALID,0.757813,
2007-01-03, 17:45:00,VALID,919.116,VALID,0,VALID,99.545,VALID,319.834,VALID,21.0497,VALID,290,VALID,1.04015,
2007-01-03, 17:46:00,VALID,919.108,VALID,0,VALID,99.7701,VALID,338.224,VALID,21.1205,VALID,257,VALID,0.997713,
2007-01-03, 17:47:00,VALID,919.105,VALID,0.2,VALID,99.4013,VALID,354.356,VALID,21.1468,VALID,199,VALID,0.429297,
2007-01-03, 17:48:00,VALID,919.091,VALID,0,VALID,99.0071,VALID,330.26,VALID,21.1533,VALID,246,VALID,0.957589,
2007-01-03, 17:49:00,VALID,919.097,VALID,0,VALID,99.7599,VALID,318.849,VALID,21.2402,VALID,270,VALID,1.24878,
2007-01-03, 17:50:00,VALID,919.108,VALID,0,VALID,99.2869,VALID,338.683,VALID,21.2435,VALID,232,VALID,0.588796,
2007-01-03, 17:51:00,VALID,919.11,VALID,0,VALID,98.3612,VALID,353.779,VALID,21.1533,VALID,275,VALID,1.21322,
2007-01-03, 17:52:00,VALID,919.088,VALID,0,VALID,99.1076,VALID,363.22,VALID,21.2109,VALID,284,VALID,1.52131,
2007-01-03, 17:53:00,VALID,919.076,VALID,0,VALID,99.7447,VALID,373.341,VALID,21.3727,VALID,275,VALID,1.69804,
2007-01-03, 17:54:00,VALID,919.058,VALID,0,VALID,99.3632,VALID,410.732,VALID,21.405,VALID,268,VALID,1.43786,
2007-01-03, 17:55:00,VALID,919.032,VALID,0,VALID,98.8609,VALID,465.36,VALID,21.4106,VALID,276,VALID,1.22354,
2007-01-03, 17:56:00,VALID,919.016,VALID,0,VALID,98.5761,VALID,513.551,VALID,21.4343,VALID,275,VALID,1.35792,
2007-01-03, 17:57:00,VALID,919.008,VALID,0,VALID,97.3223,VALID,545.339,VALID,21.4144,VALID,219,VALID,1.63359,
2007-01-03, 17:58:00,VALID,919.005,VALID,0,VALID,95.7264,VALID,564.969,VALID,21.1172,VALID,229,VALID,1.252,
2007-01-03, 17:59:00,VALID,918.988,VALID,0,VALID,96.4944,VALID,548.939,VALID,21.1651,VALID,277,VALID,1.50667,
2007-01-03, 18:00:00,VALID,919.008,VALID,0,VALID,98.0852,VALID,547.021,VALID,21.3169,VALID,270,VALID,1.03525,
2007-01-03, 18:01:00,VALID,919.007,VALID,0,VALID,99.4865,VALID,526.779,VALID,21.5912,VALID,263,VALID,1.30097,
2007-01-03, 18:02:00,VALID,919.016,VALID,0,VALID,98.5773,VALID,483.376,VALID,21.7099,VALID,254,VALID,0.735283,
2007-01-03, 18:03:00,VALID,918.995,VALID,0,VALID,98.1437,VALID,446.426,VALID,21.7982,VALID,306,VALID,0.585007,
2007-01-03, 18:04:00,VALID,919.001,VALID,0,VALID,97.4876,VALID,414.672,VALID,21.8849,VALID,281,VALID,0.710938,
2007-01-03, 18:05:00,VALID,918.984,VALID,0,VALID,95.3932,VALID,386.161,VALID,21.7788,VALID,264,VALID,1.37736,
2007-01-03, 18:06:00,VALID,918.995,VALID,0,VALID,96.5199,VALID,380.965,VALID,21.7686,VALID,272,VALID,1.07146,
2007-01-03, 18:07:00,VALID,918.986,VALID,0,VALID,96.2465,VALID,370.624,VALID,21.81,VALID,238,VALID,0.856213,
2007-01-03, 18:08:00,VALID,918.982,VALID,0,VALID,95.8319,VALID,344.881,VALID,21.7651,VALID,268,VALID,0.815972,
2007-01-03, 18:09:00,VALID,918.976,VALID,0,VALID,96.909,VALID,336.441,VALID,21.8262,VALID,264,VALID,0.676669,
2007-01-03, 18:10:00,VALID,918.969,VALID,0,VALID,96.5567,VALID,320.428,VALID,21.8587,VALID,235,VALID,0.566067,
2007-01-03, 18:11:00,VALID,918.966,VALID,0,VALID,96.689,VALID,322.806,VALID,21.8843,VALID,274,VALID,0.750191,
2007-01-03, 18:12:00,VALID,918.957,VALID,0,VALID,96.3101,VALID,314.638,VALID,21.9425,VALID,270,VALID,0.953869,
2007-01-03, 18:13:00,VALID,918.961,VALID,0,VALID,96.0303,VALID,307.71,VALID,21.936,VALID,272,VALID,1.52191,
2007-01-03, 18:14:00,VALID,918.972,VALID,0,VALID,96.5529,VALID,316.268,VALID,21.9807,VALID,283,VALID,1.73456,
2007-01-03, 18:15:00,VALID,918.98,VALID,0,VALID,94.9596,VALID,300.73,VALID,21.8776,VALID,263,VALID,1.45222,
2007-01-03, 18:16:00,VALID,918.982,VALID,0,VALID,95.4174,VALID,287.57,VALID,21.8001,VALID,271,VALID,0.930618,
2007-01-03, 18:17:00,VALID,918.966,VALID,0,VALID,96.1982,VALID,295.772,VALID,21.796,VALID,285,VALID,1.69341,
2007-01-03, 18:18:00,VALID,918.966,VALID,0,VALID,96.2554,VALID,302.751,VALID,21.8159,VALID,279,VALID,2.12891,
2007-01-03, 18:19:00,VALID,918.965,VALID,0,VALID,96.4728,VALID,288.063,VALID,21.7928,VALID,287,VALID,1.32088,
2007-01-03, 18:20:00,VALID,918.963,VALID,0,VALID,95.6857,VALID,253.184,VALID,21.6962,VALID,247,VALID,0.437145,
2007-01-03, 18:21:00,VALID,918.948,VALID,0,VALID,95.2165,VALID,236.917,VALID,21.6057,VALID,337,VALID,0.390997,
2007-01-03, 18:22:00,VALID,918.95,VALID,0,VALID,95.116,VALID,233.996,VALID,21.5088,VALID,268,VALID,1.26102,
2007-01-03, 18:23:00,VALID,918.939,VALID,0,VALID,96.8632,VALID,211.072,VALID,21.5543,VALID,277,VALID,1.05566,
2007-01-03, 18:24:00,VALID,918.932,VALID,0,VALID,96.2363,VALID,209.866,VALID,21.532,VALID,254,VALID,1.24907,
2007-01-03, 18:25:00,VALID,918.922,VALID,0,VALID,96.3368,VALID,211.462,VALID,21.4383,VALID,275,VALID,1.46646,
2007-01-03, 18:26:00,VALID,918.945,VALID,0,VALID,96.5186,VALID,201.545,VALID,21.3866,VALID,263,VALID,1.54669,
2007-01-03, 18:27:00,VALID,918.942,VALID,0,VALID,96.5161,VALID,208.643,VALID,21.3153,VALID,275,VALID,1.35689,
2007-01-03, 18:28:00,VALID,918.935,VALID,0,VALID,97.2091,VALID,200.51,VALID,21.3159,VALID,262,VALID,0.994391,
2007-01-03, 18:29:00,VALID,918.94,VALID,0,VALID,97.8207,VALID,163.508,VALID,21.3544,VALID,252,VALID,0.461301,
2007-01-03, 18:30:00,VALID,918.926,VALID,0,VALID,97.8919,VALID,151.011,VALID,21.3775,VALID,271,VALID,1.18083,
2007-01-03, 18:31:00,VALID,918.908,VALID,0,VALID,97.4927,VALID,168.331,VALID,21.3382,VALID,303,VALID,0.429688,
2007-01-03, 18:32:00,VALID,918.89,VALID,0,VALID,97.7978,VALID,207.438,VALID,21.3129,VALID,299,VALID,1.70276,
2007-01-03, 18:33:00,VALID,918.885,VALID,0,VALID,97.925,VALID,219.97,VALID,21.2968,VALID,266,VALID,1.82664,
2007-01-03, 18:34:00,VALID,918.871,VALID,0,VALID,98.0649,VALID,225.336,VALID,21.226,VALID,279,VALID,1.37209,
2007-01-03, 18:35:00,VALID,918.867,VALID,0,VALID,98.5532,VALID,215.962,VALID,21.2682,VALID,268,VALID,1.38608,
2007-01-03, 18:36:00,VALID,918.84,VALID,0,VALID,97.78,VALID,212.923,VALID,21.1966,VALID,273,VALID,1.75057,
2007-01-03, 18:37:00,VALID,918.833,VALID,0,VALID,97.1315,VALID,198.489,VALID,21.0868,VALID,269,VALID,1.78142,
2007-01-03, 18:38:00,VALID,918.826,VALID,0,VALID,97.4609,VALID,169.554,VALID,20.9932,VALID,269,VALID,1.10799,
2007-01-03, 18:39:00,VALID,918.818,VALID,0,VALID,97.6287,VALID,175.65,VALID,20.9676,VALID,271,VALID,1.41334,
2007-01-03, 18:40:00,VALID,918.804,VALID,0,VALID,98.6969,VALID,166.005,VALID,20.9932,VALID,275,VALID,1.95135,
2007-01-03, 18:41:00,VALID,918.781,VALID,0.2,VALID,98.3243,VALID,155.205,VALID,20.9596,VALID,281,VALID,2.11347,
2007-01-03, 18:42:00,VALID,918.793,VALID,0,VALID,97.9987,VALID,145.22,VALID,20.8404,VALID,283,VALID,1.41276,
2007-01-03, 18:43:00,VALID,918.781,VALID,0,VALID,99.0071,VALID,145.203,VALID,20.8501,VALID,281,VALID,0.942187,
2007-01-03, 18:44:00,VALID,918.774,VALID,0,VALID,99.4751,VALID,167.533,VALID,20.9044,VALID,279,VALID,1.45461,
2007-01-03, 18:45:00,VALID,918.753,VALID,0.2,VALID,99.0567,VALID,204.602,VALID,20.892,VALID,262,VALID,1.79764,
2007-01-03, 18:46:00,VALID,918.732,VALID,0,VALID,98.9626,VALID,234.777,VALID,20.8011,VALID,275,VALID,1.1859,
2007-01-03, 18:47:00,VALID,918.728,VALID,0.2,VALID,99.8436,VALID,236.815,VALID,20.8888,VALID,280,VALID,1.27031,
2007-01-03, 18:48:00,VALID,918.714,VALID,0,VALID,99.3899,VALID,219.579,VALID,20.9017,VALID,298,VALID,1.16751,
2007-01-03, 18:49:00,VALID,918.705,VALID,0,VALID,98.7617,VALID,192.393,VALID,20.8178,VALID,260,VALID,1.58668,
2007-01-03, 18:50:00,VALID,918.684,VALID,0,VALID,98.2162,VALID,189.489,VALID,20.6916,VALID,275,VALID,1.82849,
2007-01-03, 18:51:00,VALID,918.683,VALID,0,VALID,99.3912,VALID,205.672,VALID,20.7137,VALID,279,VALID,2.03925,
2007-01-03, 18:52:00,VALID,918.689,VALID,0.2,VALID,99.6951,VALID,211.836,VALID,20.7761,VALID,275,VALID,1.55599,
2007-01-03, 18:53:00,VALID,918.67,VALID,0,VALID,98.7019,VALID,210.019,VALID,20.6466,VALID,258,VALID,1.83746,
2007-01-03, 18:54:00,VALID,918.675,VALID,0,VALID,99.7574,VALID,211.615,VALID,20.6986,VALID,255,VALID,1.16868,
2007-01-03, 18:55:00,VALID,918.654,VALID,0,VALID,99.3581,VALID,206.13,VALID,20.6961,VALID,283,VALID,1.55877,
2007-01-03, 18:56:00,VALID,918.627,VALID,0,VALID,98.8673,VALID,207.964,VALID,20.6206,VALID,276,VALID,2.39215,
2007-01-03, 18:57:00,VALID,918.623,VALID,0,VALID,99.484,VALID,220.106,VALID,20.6568,VALID,249,VALID,0.749479,
2007-01-03, 18:58:00,VALID,918.611,VALID,0,VALID,99.676,VALID,226.117,VALID,20.6988,VALID,274,VALID,1.16566,
2007-01-03, 18:59:00,VALID,918.598,VALID,0.2,VALID,99.8871,VALID,227.271,VALID,20.7569,VALID,272,VALID,1.57467,
2007-01-03, 19:00:00,VALID,918.588,VALID,0,VALID,99.4242,VALID,211.751,VALID,20.7408,VALID,282,VALID,1.69754,
2007-01-03, 19:01:00,VALID,918.563,VALID,0,VALID,99.8942,VALID,206.368,VALID,20.7793,VALID,283,VALID,1.25568,
2007-01-03, 19:02:00,VALID,918.555,VALID,0,VALID,100,VALID,203.481,VALID,20.8506,VALID,278,VALID,0.925495,
2007-01-03, 19:03:00,VALID,918.546,VALID,0,VALID,100,VALID,190.983,VALID,20.8861,VALID,276,VALID,1.53398,
2007-01-03, 19:04:00,VALID,918.536,VALID,0.2,VALID,100,VALID,171.421,VALID,20.8961,VALID,286,VALID,0.972842,
2007-01-03, 19:05:00,VALID,918.533,VALID,0.2,VALID,99.6925,VALID,169.129,VALID,20.864,VALID,268,VALID,0.755319,
2007-01-03, 19:06:00,VALID,918.521,VALID,0,VALID,99.5616,VALID,166.871,VALID,20.8447,VALID,278,VALID,1.11626,
2007-01-03, 19:07:00,VALID,918.52,VALID,0.2,VALID,99.7752,VALID,170.929,VALID,20.857,VALID,310,VALID,0.336107,
2007-01-03, 19:08:00,VALID,918.491,VALID,0,VALID,99.5819,VALID,187.876,VALID,20.8508,VALID,244,VALID,0.679306,
2007-01-03, 19:09:00,VALID,918.478,VALID,0,VALID,98.9664,VALID,171.897,VALID,20.7733,VALID,257,VALID,0.773983,
2007-01-03, 19:10:00,VALID,918.468,VALID,0.2,VALID,99.1521,VALID,181.44,VALID,20.7542,VALID,241,VALID,0.745821,
2007-01-03, 19:11:00,VALID,918.456,VALID,0,VALID,98.7274,VALID,167.091,VALID,20.6506,VALID,168,VALID,0.676897,
2007-01-03, 19:12:00,VALID,918.445,VALID,0,VALID,98.6574,VALID,153.031,VALID,20.5602,VALID,109,VALID,0.495066,
2007-01-03, 19:13:00,VALID,918.43,VALID,0.2,VALID,98.8456,VALID,156.156,VALID,20.5056,VALID,156,VALID,0.645198,
2007-01-03, 19:14:00,VALID,918.421,VALID,0.2,VALID,99.2169,VALID,152.216,VALID,20.4865,VALID,156,VALID,0.436228,
2007-01-03, 19:15:00,VALID,918.398,VALID,0,VALID,99.2945,VALID,139.701,VALID,20.4254,VALID,215,VALID,0.442773,
2007-01-03, 19:16:00,VALID,918.377,VALID,0.2,VALID,99.8812,VALID,130.209,VALID,20.4768,VALID,244,VALID,0.617969,
2007-01-03, 19:17:00,VALID,918.361,VALID,0,VALID,100,VALID,128.8,VALID,20.5384,VALID,263,VALID,0.150568,
2007-01-03, 19:18:00,VALID,918.347,VALID,0.2,VALID,100,VALID,141.297,VALID,20.5613,VALID,263,VALID,0.015625,
2007-01-03, 19:19:00,VALID,918.332,VALID,0,VALID,100,VALID,125.964,VALID,20.6065,VALID,267,VALID,0.405878,
2007-01-03, 19:20:00,VALID,918.312,VALID,0.2,VALID,100,VALID,107.913,VALID,20.6027,VALID,264,VALID,0.20149,
2007-01-03, 19:21:00,VALID,918.309,VALID,0,VALID,100,VALID,117.881,VALID,20.6256,VALID,271,VALID,0.0902158,
2007-01-03, 19:22:00,VALID,918.284,VALID,0.2,VALID,100,VALID,128.698,VALID,20.6705,VALID,267,VALID,0.102582,
2007-01-03, 19:23:00,VALID,918.28,VALID,0,VALID,100,VALID,131.211,VALID,20.6124,VALID,54,VALID,0.379092,
2007-01-03, 19:24:00,VALID,918.258,VALID,0,VALID,100,VALID,125.488,VALID,20.6027,VALID,57,VALID,0.180804,
2007-01-03, 19:25:00,VALID,918.252,VALID,0.2,VALID,100,VALID,111.785,VALID,20.6164,VALID,62,VALID,0.231831,
2007-01-03, 19:26:00,VALID,918.229,VALID,0,VALID,100,VALID,134.947,VALID,20.6169,VALID,65,VALID,0.0326172,
2007-01-03, 19:27:00,VALID,918.233,VALID,0.2,VALID,99.999,VALID,163.865,VALID,20.5981,VALID,65,VALID,0.0745739,
2007-01-03, 19:28:00,VALID,918.219,VALID,0,VALID,100,VALID,156.326,VALID,20.5879,VALID,341,VALID,0.482922,
2007-01-03, 19:29:00,VALID,918.207,VALID,0,VALID,100,VALID,125.658,VALID,20.6562,VALID,295,VALID,1.04142,
2007-01-03, 19:30:00,VALID,918.202,VALID,0,VALID,100,VALID,115.673,VALID,20.6557,VALID,283,VALID,0.492543,
2007-01-03, 19:31:00,VALID,918.206,VALID,0.2,VALID,100,VALID,111.106,VALID,20.6532,VALID,283,VALID,0.078125,
2007-01-03, 19:32:00,VALID,918.211,VALID,0,VALID,100,VALID,111.836,VALID,20.6567,VALID,326,VALID,0.414244,
2007-01-03, 19:33:00,VALID,918.195,VALID,0,VALID,100,VALID,129.071,VALID,20.6274,VALID,269,VALID,0.299006,
2007-01-03, 19:34:00,VALID,918.19,VALID,0.2,VALID,99.3899,VALID,143.675,VALID,20.488,VALID,129,VALID,0.986049,
2007-01-03, 19:35:00,VALID,918.199,VALID,0,VALID,99.4064,VALID,148.803,VALID,20.375,VALID,126,VALID,0.93457,
2007-01-03, 19:36:00,VALID,918.185,VALID,0,VALID,99.8489,VALID,177.619,VALID,20.3621,VALID,160,VALID,0.224746,
2007-01-03, 19:37:00,VALID,918.164,VALID,0.2,VALID,100,VALID,192.902,VALID,20.3624,VALID,153,VALID,0.147711,
2007-01-03, 19:38:00,VALID,918.152,VALID,0,VALID,100,VALID,186.755,VALID,20.385,VALID,99,VALID,0.420945,
2007-01-03, 19:39:00,VALID,918.149,VALID,0.2,VALID,99.8665,VALID,186.653,VALID,20.3246,VALID,143,VALID,0.369284,
2007-01-03, 19:40:00,VALID,918.121,VALID,0,VALID,100,VALID,195.364,VALID,20.3815,VALID,234,VALID,0.587271,
2007-01-03, 19:41:00,VALID,918.104,VALID,0,VALID,100,VALID,196.689,VALID,20.4776,VALID,268,VALID,1.28343,
2007-01-03, 19:42:00,VALID,918.087,VALID,0.2,VALID,100,VALID,189.099,VALID,20.4068,VALID,263,VALID,0.702257,
2007-01-03, 19:43:00,VALID,918.077,VALID,0,VALID,100,VALID,178.418,VALID,20.4574,VALID,256,VALID,0.353561,